TimeEDT,TemperatureF,Dew PointF,Humidity,Sea Level PressureIn,VisibilityMPH,Wind Direction,Wind SpeedMPH,Gust SpeedMPH,PrecipitationIn,Events,Conditions,WindDirDegrees,DateUTC
12:13 AM,82.4,78.8,89,29.68,7.0,South,18.4,26.5,0.01,Rain,Light Rain,190,2011-10-19 04:13:00
12:51 AM,78.8,75.2,89,29.68,6.0,South,23.0,39.1,0.08,Rain,Light Rain,190,2011-10-19 04:51:00
12:53 AM,79.0,75.9,90,29.68,6.0,South,20.7,39.1,0.08,Rain,Light Rain,190,2011-10-19 04:53:00
1:01 AM,80.6,77.0,89,29.68,10.0,South,16.1,29.9,0.00,,Overcast,190,2011-10-19 05:01:00
1:38 AM,82.4,78.8,89,29.67,10.0,SSW,21.9,31.1,0.00,,Scattered Clouds,200,2011-10-19 05:38:00
1:53 AM,82.0,78.1,88,29.67,10.0,SSW,25.3,31.1,0.00,,Scattered Clouds,210,2011-10-19 05:53:00
2:53 AM,82.9,78.1,85,29.66,10.0,SSW,21.9,31.1,N/A,,Partly Cloudy,200,2011-10-19 06:53:00
3:07 AM,82.4,78.8,89,29.65,10.0,SSW,19.6,29.9,N/A,,Mostly Cloudy,200,2011-10-19 07:07:00
3:15 AM,82.4,78.8,89,29.65,10.0,SSW,19.6,27.6,N/A,,Mostly Cloudy,200,2011-10-19 07:15:00
3:53 AM,82.9,78.1,85,29.65,10.0,SSW,20.7,-,N/A,,Mostly Cloudy,200,2011-10-19 07:53:00
4:33 AM,82.4,78.8,89,29.67,10.0,SSW,18.4,24.2,N/A,Thunderstorm,Thunderstorm,210,2011-10-19 08:33:00
4:53 AM,80.1,75.9,87,29.68,4.0,West,20.7,29.9,0.03,Rain-Thunderstorm,Heavy Thunderstorms and Rain,260,2011-10-19 08:53:00
5:04 AM,77.0,75.2,94,29.66,5.0,West,10.4,21.9,0.06,Rain-Thunderstorm,Heavy Rain,260,2011-10-19 09:04:00
5:25 AM,77.0,75.2,94,29.68,3.0,West,20.7,28.8,0.18,Rain-Thunderstorm,Heavy Thunderstorms and Rain,260,2011-10-19 09:25:00
5:28 AM,77.0,75.2,94,29.69,1.8,WSW,24.2,31.1,N/A,Rain-Thunderstorm,Heavy Thunderstorms and Rain,250,2011-10-19 09:28:00
5:34 AM,77.0,75.2,94,29.68,1.0,SW,16.1,31.1,0.56,Rain-Thunderstorm,Heavy Thunderstorms and Rain,230,2011-10-19 09:34:00
5:40 AM,77.0,75.2,94,29.68,1.2,WSW,19.6,-,0.88,Rain-Thunderstorm,Heavy Thunderstorms and Rain,240,2011-10-19 09:40:00
5:53 AM,77.0,75.9,96,29.68,1.2,SW,19.6,26.5,1.37,Rain-Thunderstorm,Heavy Thunderstorms and Rain,220,2011-10-19 09:53:00
6:19 AM,75.2,75.2,100,29.67,3.0,WSW,5.8,-,1.02,Rain-Thunderstorm,Heavy Rain,250,2011-10-19 10:19:00
6:29 AM,77.0,75.2,94,29.67,5.0,Variable,4.6,-,1.06,Rain-Thunderstorm,Light Rain,0,2011-10-19 10:29:00
6:42 AM,75.2,75.2,100,29.67,2.5,North,4.6,-,1.18,Rain-Thunderstorm,Heavy Rain,350,2011-10-19 10:42:00
6:48 AM,77.0,75.2,94,29.67,1.5,WNW,10.4,17.3,1.30,Rain,Heavy Rain,300,2011-10-19 10:48:00
6:53 AM,77.0,75.2,94,29.67,1.0,West,9.2,17.3,N/A,Rain-Thunderstorm,Heavy Thunderstorms and Rain,280,2011-10-19 10:53:00
6:59 AM,77.0,77.0,100,29.67,1.2,West,11.5,-,N/A,Rain-Thunderstorm,Heavy Thunderstorms and Rain,260,2011-10-19 10:59:00
7:07 AM,77.0,75.2,94,29.68,1.8,SW,18.4,26.5,0.45,Rain-Thunderstorm,Heavy Thunderstorms and Rain,220,2011-10-19 11:07:00
7:15 AM,77.0,75.2,94,29.68,2.0,SW,18.4,24.2,0.66,Rain-Thunderstorm,Heavy Thunderstorms and Rain,230,2011-10-19 11:15:00
7:25 AM,77.0,75.2,94,29.67,6.0,WSW,18.4,-,0.72,Rain-Thunderstorm,Light Thunderstorms and Rain,240,2011-10-19 11:25:00
7:39 AM,78.8,77.0,94,29.67,10.0,SW,13.8,-,0.74,Rain-Thunderstorm,Light Thunderstorms and Rain,220,2011-10-19 11:39:00
7:48 AM,78.8,77.0,94,29.68,10.0,SW,16.1,-,0.74,Rain,Light Rain,230,2011-10-19 11:48:00
7:53 AM,80.1,77.0,90,29.68,10.0,SW,16.1,-,0.74,,Overcast,220,2011-10-19 11:53:00
8:38 AM,77.0,75.2,94,29.71,3.0,WNW,9.2,-,0.05,Rain,Heavy Rain,290,2011-10-19 12:38:00
8:53 AM,77.0,77.0,100,29.71,10.0,WNW,6.9,-,0.07,Rain,Light Rain,290,2011-10-19 12:53:00
9:11 AM,77.0,75.2,94,29.72,9.0,West,6.9,-,0.02,Rain,Light Rain,260,2011-10-19 13:11:00
9:53 AM,77.0,75.0,94,29.74,10.0,WSW,4.6,-,0.02,Rain,Light Rain,250,2011-10-19 13:53:00
10:53 AM,77.0,75.9,96,29.75,10.0,WSW,8.1,-,0.01,Rain,Light Rain,240,2011-10-19 14:53:00
11:53 AM,78.8,77.0,94,29.76,8.0,West,9.2,-,N/A,Rain,Rain,280,2011-10-19 15:53:00
12:53 PM,80.1,77.0,90,29.75,10.0,West,5.8,-,0.06,,Scattered Clouds,280,2011-10-19 16:53:00
1:53 PM,81.0,75.0,82,29.75,10.0,West,8.1,-,N/A,,Clear,270,2011-10-19 17:53:00
2:53 PM,80.1,73.9,81,29.75,10.0,West,8.1,-,0.00,Rain,Light Rain,270,2011-10-19 18:53:00
3:53 PM,80.1,73.0,79,29.76,10.0,West,10.4,-,0.00,,Scattered Clouds,260,2011-10-19 19:53:00
4:32 PM,80.6,73.4,79,29.74,10.0,NW,11.5,-,N/A,,Mostly Cloudy,310,2011-10-19 20:32:00
4:44 PM,80.6,73.4,79,29.73,10.0,NW,15.0,21.9,N/A,,Mostly Cloudy,310,2011-10-19 20:44:00
4:53 PM,80.1,73.9,81,29.73,10.0,NW,16.1,-,N/A,,Mostly Cloudy,310,2011-10-19 20:53:00
5:38 PM,78.8,73.4,83,29.75,10.0,NW,12.7,-,N/A,,Overcast,320,2011-10-19 21:38:00
5:53 PM,79.0,72.0,79,29.77,10.0,NW,12.7,20.7,N/A,,Overcast,320,2011-10-19 21:53:00
6:53 PM,79.0,71.1,77,29.82,10.0,NW,13.8,21.9,0.00,,Overcast,320,2011-10-19 22:53:00
7:53 PM,78.1,69.1,74,29.84,10.0,NW,13.8,21.9,N/A,,Overcast,310,2011-10-19 23:53:00
8:53 PM,78.1,68.0,71,29.88,10.0,NW,18.4,-,N/A,,Overcast,320,2011-10-20 00:53:00
9:53 PM,77.0,66.9,71,29.90,10.0,NW,17.3,-,N/A,,Overcast,320,2011-10-20 01:53:00
10:53 PM,75.9,64.0,67,29.92,10.0,NW,17.3,-,N/A,,Partly Cloudy,310,2011-10-20 02:53:00
11:53 PM,75.9,64.0,67,29.94,10.0,NW,15.0,-,N/A,,Overcast,320,2011-10-20 03:53:00